Home   Weather   Qaanaaq   Past weeks

Flag for Greenland Past Weather in Qaanaaq, Greenland — Yesterday and Last 2 Weeks

Now
-24 °F

Sunny.


Feels Like: -50 °F
Forecast: -41 / -34 °F
Wind: 15 mph from East

Location: Thule A. B.

Current Time: Feb 24, 2017 at 3:02:04 pm

Latest Report: Feb 24, 2017 at 1:58 pm


Visibility: N/A

Pressure: 29.41 "Hg

Humidity: 75%

Dew Point: -29 °F

Location of QaanaaqLocation

Past Weather in Qaanaaq — Graph

°F

Qaanaaq Temperature Yesterday

Maximum temperature yesterday: -20 °F (at 2:58 pm)
Minimum temperature yesterday: -27 °F (at 12:58 am)
Average temperature yesterday: -24 °F

High & Low Weather Summary for the Past Weeks

 TemperatureHumidityPressure
High10 °F (Feb 9, 1:38 pm)100% (Feb 16, 11:58 am)30.31 "Hg (Feb 16, 11:58 am)
Low-31 °F (Feb 24, 5:58 am)41% (Feb 21, 12:58 pm)29.21 "Hg (Feb 9, 1:38 pm)
Average-11 °F75%29.75 "Hg
* Reported Feb 9 1:38 pm — Feb 24 1:58 pm, Qaanaaq, Weather by CustomWeather, © 2017

Note: Actual official high and low records may vary slightly from our data, if they occured in-between our weather recording intervals... More about our weather records

Advertising

Qaanaaq Weather History for the Previous 24 Hours

Scroll right to see more
 ConditionsComfort  
Time TempWeatherWind HumidityBarometerVisibility
1:58 pm
Fri, Feb 24
-24 °FSunny.15 mph75%29.41 "HgN/A
12:58 pm-24 °FSunny.10 mph75%29.42 "HgN/A
11:58 am-22 °FSunny.12 mph68%29.43 "HgN/A
10:58 am-22 °FClear.10 mph68%29.43 "HgN/A
9:58 am-22 °FClear.9 mph68%29.44 "HgN/A
8:58 am-24 °FClear.17 mph75%29.45 "HgN/A
7:58 am-27 °FClear.14 mph91%29.46 "HgN/A
6:58 am-29 °FClear.14 mph100%29.49 "HgN/A
5:58 am-31 °FClear.14 mphN/A29.49 "HgN/A
4:58 am-29 °FClear.8 mphN/A29.51 "HgN/A
3:58 am-26 °FClear.7 mph81%29.52 "HgN/A
2:58 am-24 °FClear.5 mph75%29.54 "HgN/A
1:58 am-22 °FClear.8 mph68%29.57 "HgN/A
12:58 am-24 °FClear.10 mph75%29.59 "HgN/A
11:58 pm
Thu, Feb 23
-22 °FClear.13 mph75%29.62 "HgN/A
10:58 pm-22 °FClear.15 mph68%29.65 "HgN/A
9:58 pm-22 °FClear.14 mph75%29.67 "HgN/A
8:58 pm-22 °FClear.15 mph75%29.70 "HgN/A
7:58 pm-24 °FClear.14 mph75%29.72 "HgN/A
6:58 pm-22 °FClear.14 mph68%29.73 "HgN/A
5:58 pm-22 °FSunny.15 mph68%29.75 "HgN/A
4:58 pm-24 °FSunny.16 mph75%29.77 "HgN/A
4:23 pm-22 °FScattered clouds.16 mph68%29.78 "HgN/A
4:03 pm-24 °FPartly sunny.15 mph75%29.79 "HgN/A
Weather by CustomWeather, © 2017

See weather overviewHow to use our weather pages